Regional Weather Roundup
Issued by NWS

Home | Current Version | Previous Version | Graphics & Text | Print | Product List | Glossary On
Versions: 1 2 3 4 5 6 7 8 9 10 11 12 13 14 15 16 17 18 19 20 21 22 23 24 25 26 27 28 29 30 31 32 33 34 35 36 37 38 39 40 41 42 43 44 45 46 47 48 49 50
000
ASUS45 KTFX 201804
RWRMT
MONTANA HOURLY WEATHER ROUNDUP
NATIONAL WEATHER SERVICE GREAT FALLS MT
1204 PM MDT SAT SEP 20 2014

NOTE: "FAIR" INDICATES FEW OR NO CLOUDS BELOW 12000 FEET WITH NO
SIGNIFICANT WEATHER AND/OR OBSTRUCTIONS TO VISIBILITY.

* THESE STATIONS ARE NOT UNDER NWS QUALITY CONTROL. THEY DO NOT
   REPORT WEATHER SUCH AS PRECIPITATION OR FOG.

MTZ001>007-043-201900-
WEST OF THE DIVIDE
CITY           SKY/WX    TMP DP  RH WIND       PRES   REMARKS
KALISPELL      SUNNY     66  46  49 VRB5      30.24S
MISSOULA       SUNNY     63  45  52 CALM      30.27F
BUTTE          SUNNY     64  37  37 VRB3      30.33F
MULLAN PASS    SUNNY     57  45  64 VRB6      30.33S
* ESSEX        N/A       67  46  47 N4         N/A
* LINCOLN      N/A       62  45  54 S5         N/A
* LOOKOUT PASS N/A       61  47  60 S6G11      N/A
* POLSON       N/A       67  51  57 SE3        N/A
* RONAN APT    SUNNY     70  48  46 N/A        N/A
* SEELEY LAKE  N/A       65  45  49 S3         N/A
* THOMP F APT  SUNNY     67  42  40 S5         N/A
$$

MTZ008-052>055-201900-
SOUTHWEST MONTANA
CITY           SKY/WX    TMP DP  RH WIND       PRES   REMARKS
BOZEMAN        SUNNY     66  45  47 CALM      30.30S
DILLON         SUNNY     63  43  48 W3        30.31S
W YELLOWSTONE  SUNNY     59  41  51 CALM      30.38S
* THREE FORKS  SUNNY     64  48  56 N/A        N/A
* BOULDER HILL N/A       63  37  38 SE1        N/A
* MONIDA PASS  N/A       61  41  48 NE5        N/A
* RAYNOLDS PAS N/A       61  60  97 N4         N/A
* WHITEHALL    N/A       64  46  52 S3         N/A
* WISE RIVER   N/A       58  41  53 W2         N/A
$$

MTZ009>010-012-014-046-048-049-054-201900-
EAST SLOPES AND CENTRAL MONTANA
CITY           SKY/WX    TMP DP  RH WIND       PRES   REMARKS
CUT BANK       SUNNY     64  41  43 VRB3      30.27R
GREAT FALLS    SUNNY     68  43  40 NE6       30.26S
HELENA         SUNNY     68  45  44 E5        30.25F
MALMSTROM AFB  SUNNY     66  43  43 VRB2      30.27S
* CONRAD       SUNNY     64  46  52 E5         N/A
* EAST GLACIER N/A       59  43  56 S9         N/A
* MONARCH      N/A       62  37  40 NW4        N/A
* PENDROY      N/A       65  48  54 SW6        N/A
* SAINT MARY   N/A       66  46  49 S4         N/A
* SWEET GRASS  N/A       63  35  35 S3G9       N/A
$$

MTZ011-013-016-021-035-040-045-047-050-051-201900-
NORTH CENTRAL MONTANA
CITY           SKY/WX    TMP DP  RH WIND       PRES   REMARKS
HAVRE          SUNNY     70  36  29 W6        30.23S
LEWISTOWN      SUNNY     66  43  43 NW8       30.28S
* CHESTER      N/A       68  33  27 N1         N/A
* DENTON       N/A       68  45  44 W8G16      N/A
* GEYSER       N/A       66  44  45 W8         N/A
* JUDITH GAP   N/A       62  45  54 VRB11G18    N/A
* LOMA         N/A       65  42  43 SW4        N/A
$$

MTZ017>020-022>027-061-062-201900-
NORTHEAST MONTANA
CITY           SKY/WX    TMP DP  RH WIND       PRES   REMARKS
GLASGOW        PTCLDY    70  41  35 NW18      30.15R
JORDAN         SUNNY     68  43  40 W14       30.20R
SIDNEY         PTCLDY    70  43  38 NW20G26   30.09S
WOLF POINT     PTCLDY    70  45  41 W22G35    30.12R
* BEAVER HILL  N/A       67  39  36 NW24G30    N/A
* CIRCLE       N/A       67  47  49 W11        N/A
* LINDSAY DVD  N/A       66  39  37 W23G30     N/A
$$

MTZ028>042-056>058-201900-
SOUTHCENTRAL AND SOUTHEAST MONTANA
CITY           SKY/WX    TMP DP  RH WIND       PRES   REMARKS
BAKER          PTCLDY    70  43  38 NW18G26   30.15R
BILLINGS       SUNNY     72  39  30 NE9G17    30.26S
LIVINGSTON     SUNNY     68  43  40 VRB3      30.28F
MILES CITY     SUNNY     70  45  41 NW14G22   30.19R
* LAUREL APT   SUNNY     72  39  30 NW5        N/A
* ROUNDUP APT  SUNNY     70  39  32 NW10G16    N/A
* ALZADA       N/A       70  43  38 W17G22     N/A
* HYSHAM       N/A       68  43  40 NW4G9      N/A
* LAME DEER    N/A       63  42  46 NW12G17    N/A
* REED POINT   N/A       72  42  34 SE1G9      N/A
* ROSCOE HILL  N/A       64  33  31 NE4        N/A
$$

REGIONAL REPORTS...DAKOTAS
CITY           SKY/WX    TMP DP  RH WIND       PRES   REMARKS
WILLISTON      SUNNY     70  37  30 NW25G38   30.04R
DICKINSON      PTCLDY    68  41  38 NW25G35   30.04R
BEACH          N/A       68  43  40 NW20G31   30.10R
CROSBY         SUNNY     66  41  40 NW26G37   30.01R
TIOGA          SUNNY     66  39  37 NW31G40   30.02R
WATFORD CITY   SUNNY     68  43  40 NW22G30   30.02R
BISMARCK       PTCLDY    72  48  43 NW23G30   29.96R
GRAND FORKS    TSTM      57  54  90 NW13G28   29.75R
FARGO          PTCLDY    70  57  64 SW9       29.77F
BUFFALO SD     SUNNY     68  45  44 NW31G39   30.07R
$$

REGIONAL REPORTS...WYOMING/IDAHO/WASHINGTON
CITY           SKY/WX    TMP DP  RH WIND       PRES   REMARKS
GILLETTE       SUNNY     70  41  35 NW22G30   30.25R
SHERIDAN       SUNNY     72  43  35 N14G24    30.26R
CODY           SUNNY    N/A N/A N/A N/A        N/A
YELLOWSTONE LA SUNNY     55  39  55 E5        30.46R
SALMON         SUNNY     64  43  47 CALM      30.24F
MULLAN PASS    SUNNY     57  45  64 VRB6      30.33S
SAND POINT     SUNNY     68  50  53 NE9       30.21F
SPOKANE        SUNNY     70  48  46 NE7       30.20F

$$




USA.gov is the U.S. government's official web portal to all federal, state and local government web resources and services.